When you browse on this site, cookies collect data to enhance your experience and personalize the content and advertising you see.
Visit our Privacy Policy to learn more. By continuing to use the site, you agree to this use of cookies and data.
  • Em Portugal
  • Lista de países
  • Para 7 dias
  • Temperatura da água
  • Mapas de satélite
  • Mapa do tempo
  • Widgets de tempo
  • user-avatar
    Iniciar Sessão

    Previsão horária em Silkhet

    Hoje, 24 Maio, Sexta-feira

    Tempo Temperatura Precipitação Vento Pressão Humidade
    00:00 +27°C° 0 mm 1 m/s 754 mmHg 82%
    01:00 +26°C° 1.3 mm 2 m/s 754 mmHg 84%
    02:00 +26°C° 1.3 mm 2 m/s 754 mmHg 85%
    03:00 +26°C° 1.3 mm 3 m/s 754 mmHg 87%
    04:00 +26°C° 1.8 mm 3 m/s 754 mmHg 88%
    05:00 +25°C° 1.8 mm 3 m/s 754 mmHg 89%
    06:00 +25°C° 0 mm 3 m/s 754 mmHg 90%
    07:00 +27°C° 2 mm 3 m/s 755 mmHg 88%
    08:00 +28°C° 2 mm 3 m/s 755 mmHg 85%
    09:00 +29°C° 2 mm 3 m/s 755 mmHg 82%
    10:00 +31°C° 0.7 mm 3 m/s 755 mmHg 77%
    11:00 +32°C° 0.7 mm 2 m/s 754 mmHg 71%
    12:00 +35°C° 0.7 mm 2 m/s 754 mmHg 65%
    13:00 +35°C° 1.7 mm 2 m/s 753 mmHg 66%
    14:00 +35°C° 1.7 mm 2 m/s 753 mmHg 66%
    15:00 +35°C° 1.7 mm 2 m/s 752 mmHg 67%
    16:00 +34°C° 0.4 mm 2 m/s 752 mmHg 70%
    17:00 +34°C° 0.4 mm 2 m/s 752 mmHg 74%
    18:00 +32°C° 0.4 mm 2 m/s 751 mmHg 78%
    19:00 +31°C° 3.2 mm 2 m/s 752 mmHg 81%
    20:00 +30°C° 3.2 mm 2 m/s 752 mmHg 84%
    21:00 +29°C° 3.2 mm 3 m/s 752 mmHg 87%
    22:00 +29°C° 5.5 mm 2 m/s 752 mmHg 90%
    23:00 +29°C° 5.5 mm 2 m/s 752 mmHg 92%

    Amanhã, 25 Maio, Sábado

    Tempo Temperatura Precipitação Vento Pressão Humidade
    00:00 +28°C° 5.5 mm 2 m/s 752 mmHg 95%
    01:00 +28°C° 2.9 mm 2 m/s 752 mmHg 95%
    02:00 +28°C° 2.9 mm 2 m/s 751 mmHg 95%
    03:00 +28°C° 2.9 mm 2 m/s 751 mmHg 95%
    04:00 +27°C° 2.6 mm 2 m/s 751 mmHg 95%
    05:00 +27°C° 2.6 mm 3 m/s 751 mmHg 95%
    06:00 +27°C° 2.6 mm 3 m/s 751 mmHg 95%
    07:00 +27°C° 8 mm 3 m/s 751 mmHg 95%
    08:00 +28°C° 8 mm 3 m/s 752 mmHg 95%
    09:00 +28°C° 8 mm 3 m/s 752 mmHg 94%
    10:00 +28°C° 5.3 mm 3 m/s 752 mmHg 93%
    11:00 +29°C° 5.3 mm 3 m/s 752 mmHg 92%
    12:00 +29°C° 5.3 mm 3 m/s 752 mmHg 91%
    13:00 +30°C° 3.4 mm 3 m/s 752 mmHg 88%
    14:00 +31°C° 3.4 mm 2 m/s 751 mmHg 85%
    15:00 +32°C° 3.4 mm 2 m/s 750 mmHg 82%
    16:00 +31°C° 0.5 mm 3 m/s 750 mmHg 84%
    17:00 +30°C° 0.5 mm 3 m/s 749 mmHg 86%
    18:00 +30°C° 0.5 mm 4 m/s 748 mmHg 89%
    19:00 +29°C° 1.5 mm 3 m/s 749 mmHg 89%
    20:00 +29°C° 1.5 mm 3 m/s 750 mmHg 90%
    21:00 +28°C° 1.5 mm 3 m/s 751 mmHg 91%
    22:00 +28°C° 0.3 mm 3 m/s 751 mmHg 92%
    23:00 +27°C° 0.3 mm 2 m/s 751 mmHg 94%

    Depois de amanhã, 26 Maio, Domingo

    Tempo Temperatura Precipitação Vento Pressão Humidade
    00:00 +27°C° 0.3 mm 2 m/s 751 mmHg 95%
    01:00 +27°C° 2.1 mm 2 m/s 751 mmHg 96%
    02:00 +27°C° 2.1 mm 2 m/s 750 mmHg 96%
    03:00 +27°C° 2.1 mm 2 m/s 750 mmHg 96%
    04:00 +27°C° 0.9 mm 2 m/s 750 mmHg 96%
    05:00 +27°C° 0.9 mm 3 m/s 751 mmHg 96%
    06:00 +27°C° 0.9 mm 3 m/s 751 mmHg 95%
    07:00 +28°C° 1.9 mm 3 m/s 751 mmHg 93%
    08:00 +29°C° 1.9 mm 3 m/s 752 mmHg 90%
    09:00 +30°C° 1.9 mm 3 m/s 752 mmHg 88%
    10:00 +31°C° 0.2 mm 3 m/s 752 mmHg 83%
    11:00 +34°C° 0.2 mm 3 m/s 752 mmHg 78%
    12:00 +35°C° 0.2 mm 2 m/s 752 mmHg 73%
    13:00 +35°C° 1.8 mm 2 m/s 751 mmHg 71%
    14:00 +36°C° 1.8 mm 2 m/s 751 mmHg 70%
    15:00 +36°C° 1.8 mm 2 m/s 750 mmHg 68%
    16:00 +35°C° 0.7 mm 2 m/s 750 mmHg 72%
    17:00 +33°C° 0.7 mm 1 m/s 750 mmHg 76%
    18:00 +33°C° 0.7 mm 1 m/s 750 mmHg 80%
    19:00 +32°C° 0.1 mm 1 m/s 751 mmHg 83%
    20:00 +31°C° 0.1 mm 2 m/s 752 mmHg 86%
    21:00 +30°C° 0.1 mm 2 m/s 752 mmHg 89%
    22:00 +30°C° 0.1 mm 2 m/s 752 mmHg 90%
    23:00 +29°C° 0.1 mm 2 m/s 752 mmHg 91%

    27 Maio, Segunda-feira

    Tempo Temperatura Precipitação Vento Pressão Humidade
    00:00 +29°C° 0.1 mm 3 m/s 752 mmHg 92%
    01:00 +29°C° 0.1 mm 2 m/s 752 mmHg 92%
    02:00 +28°C° 0.1 mm 2 m/s 752 mmHg 93%
    03:00 +28°C° 0.1 mm 2 m/s 751 mmHg 94%
    04:00 +28°C° 0.7 mm 2 m/s 752 mmHg 94%
    05:00 +28°C° 0.7 mm 2 m/s 752 mmHg 94%
    06:00 +28°C° 0.7 mm 3 m/s 752 mmHg 94%
    07:00 +30°C° 1.8 mm 3 m/s 752 mmHg 88%
    08:00 +31°C° 1.8 mm 3 m/s 753 mmHg 82%
    09:00 +34°C° 1.8 mm 3 m/s 753 mmHg 76%
    10:00 +34°C° 2 mm 2 m/s 753 mmHg 73%
    11:00 +35°C° 2 mm 2 m/s 752 mmHg 70%
    12:00 +36°C° 2 mm 2 m/s 752 mmHg 68%
    13:00 +35°C° 0.8 mm 1 m/s 751 mmHg 66%
    14:00 +35°C° 0.8 mm 1 m/s 751 mmHg 65%
    15:00 +36°C° 0.8 mm 1 m/s 750 mmHg 63%
    16:00 +36°C° 0.1 mm 2 m/s 750 mmHg 66%
    17:00 +35°C° 0.1 mm 2 m/s 750 mmHg 70%
    18:00 +35°C° 0.1 mm 2 m/s 750 mmHg 73%
    19:00 +34°C° 0.1 mm 2 m/s 751 mmHg 76%
    20:00 +32°C° 0.1 mm 2 m/s 751 mmHg 79%
    21:00 +31°C° 0.1 mm 2 m/s 752 mmHg 82%
    22:00 +30°C° 0.1 mm 2 m/s 752 mmHg 84%
    23:00 +30°C° 0.1 mm 2 m/s 752 mmHg 86%

    28 Maio, Terça-feira

    Tempo Temperatura Precipitação Vento Pressão Humidade
    00:00 +29°C° 0.1 mm 1 m/s 752 mmHg 87%
    01:00 +29°C° 0.9 mm 1 m/s 752 mmHg 89%
    02:00 +29°C° 0.9 mm 1 m/s 752 mmHg 91%
    03:00 +28°C° 0.9 mm 1 m/s 751 mmHg 93%
    04:00 +28°C° 0.4 mm 2 m/s 752 mmHg 93%
    05:00 +28°C° 0.4 mm 2 m/s 752 mmHg 93%
    06:00 +28°C° 0.4 mm 2 m/s 752 mmHg 94%
    07:00 +30°C° 0.3 mm 2 m/s 753 mmHg 89%
    08:00 +31°C° 0.3 mm 2 m/s 753 mmHg 84%
    09:00 +34°C° 0.3 mm 2 m/s 753 mmHg 79%
    10:00 +35°C° 0.1 mm 2 m/s 753 mmHg 75%
    11:00 +36°C° 0.1 mm 2 m/s 752 mmHg 71%
    12:00 +36°C° 0.1 mm 1 m/s 752 mmHg 66%
    13:00 +36°C° 0.1 mm 1 m/s 751 mmHg 63%
    14:00 +37°C° 0.1 mm 1 m/s 750 mmHg 59%
    15:00 +39°C° 0.1 mm 1 m/s 750 mmHg 56%
    16:00 +37°C° 0 mm 1 m/s 749 mmHg 59%
    17:00 +36°C° 0 mm 1 m/s 749 mmHg 63%
    18:00 +37°C° 0 mm 2 m/s 749 mmHg 67%
    19:00 +35°C° 0.4 mm 2 m/s 750 mmHg 71%
    20:00 +32°C° 0.4 mm 2 m/s 751 mmHg 76%
    21:00 +31°C° 0.4 mm 1 m/s 751 mmHg 81%
    22:00 +30°C° 1 mm 2 m/s 751 mmHg 83%
    23:00 +30°C° 1 mm 2 m/s 752 mmHg 84%

    29 Maio, Quarta-feira

    Tempo Temperatura Precipitação Vento Pressão Humidade
    00:00 +29°C° 1 mm 2 m/s 752 mmHg 86%
    01:00 +29°C° 1.1 mm 2 m/s 752 mmHg 88%
    02:00 +29°C° 1.1 mm 2 m/s 752 mmHg 91%
    03:00 +28°C° 1.1 mm 2 m/s 751 mmHg 93%
    04:00 +29°C° 1.4 mm 2 m/s 752 mmHg 93%
    05:00 +29°C° 1.4 mm 2 m/s 752 mmHg 94%
    06:00 +29°C° 1.4 mm 2 m/s 752 mmHg 94%
    07:00 +30°C° 0 mm 2 m/s 752 mmHg 89%
    08:00 +31°C° 0 mm 2 m/s 752 mmHg 84%
    09:00 +32°C° 0 mm 2 m/s 752 mmHg 79%
    10:00 +34°C° 0.8 mm 2 m/s 752 mmHg 74%
    11:00 +35°C° 0.8 mm 1 m/s 752 mmHg 69%
    12:00 +36°C° 0.8 mm 1 m/s 751 mmHg 64%
    13:00 +36°C° 0.4 mm 1 m/s 751 mmHg 62%
    14:00 +37°C° 0.4 mm 1 m/s 750 mmHg 60%
    15:00 +37°C° 0.4 mm 1 m/s 749 mmHg 59%
    16:00 +36°C° 1.2 mm 1 m/s 749 mmHg 64%
    17:00 +35°C° 1.2 mm 1 m/s 749 mmHg 69%
    18:00 +34°C° 1.2 mm 1 m/s 749 mmHg 74%
    19:00 +33°C° 1.5 mm 1 m/s 750 mmHg 77%
    20:00 +32°C° 1.5 mm 1 m/s 750 mmHg 81%
    21:00 +31°C° 1.5 mm 1 m/s 751 mmHg 84%
    22:00 +30°C° 1.1 mm 1 m/s 751 mmHg 86%
    23:00 +30°C° 1.1 mm 1 m/s 752 mmHg 89%
    Mostrar mais